Regional Weather Roundup
Issued by NWS Upton, NY

Home | Current Version | Previous Version | Text Only | Print | Product List | Glossary On
Versions: 1 2 3 4 5 6 7 8 9 10 11 12 13 14 15 16 17 18 19 20 21 22 23 24 25 26 27 28 29 30 31 32 33 34 35 36 37 38 39 40 41 42 43 44 45 46 47 48 49 50
000
ASUS41 KOKX 261105
RWROKX

REGIONAL WEATHER ROUNDUP
NATIONAL WEATHER SERVICE NEW YORK NY
700 AM EDT SAT JUL 26 2014

NOTE: "FAIR" INDICATES FEW OR NO CLOUDS BELOW 12,000 FEET WITH NO
SIGNIFICANT WEATHER AND/OR OBSTRUCTIONS TO VISIBILITY.

NYZ071-072-176-178-NJZ106-104-261200-
NEW YORK CITY METRO AREA


CITY           SKY/WX    TMP DP  RH WIND       PRES   REMARKS
CENTRAL PARK   PTSUNNY   70  56  61 W3        30.03S
LAGUARDIA APRT PTSUNNY   73  56  54 SW6       29.99F
KENNEDY INTL   PTSUNNY   71  59  65 W9        30.01S
NEWARK/LIBERTY PTSUNNY   67  60  78 SW5       30.00S
BRNX BOT. GARD   N/A     72  57  60 W1        29.99F
TETERBORO      PTSUNNY   71  59  65 CALM      29.99S
$$

NYZ177-179-078>081-261200-
LONG ISLAND NEW YORK

CITY           SKY/WX    TMP DP  RH WIND       PRES   REMARKS
FARMINGDALE    PTSUNNY   69  62  78 SW3       30.01S
ISLIP          PTSUNNY   70  63  78 W5        30.00R
SHIRLEY        MOSUNNY   70  64  81 SW3       30.02R
WESTHAMPTON    MOSUNNY   69  66  90 SW6       30.03R
MONTAUK POINT    N/A     70  68  93 SW6       30.02S
$$

NYZ052-065-067-261200-
HUDSON VALLEY

CITY           SKY/WX    TMP DP  RH WIND       PRES   REMARKS
WHITE PLAINS   PTSUNNY   67  60  78 W3        30.00S
NEWBURGH       MOSUNNY   63  61  94 CALM      30.01S
MONTGOMERY     MOSUNNY   61  58  90 CALM      29.99F
POUGHKEEPSIE   SUNNY     60  58  92 CALM      29.98S
ALBANY         CLOUDY    64  60  87 S3        29.97R
$$

NJZ001-105-106-008-010-013-015-019>022-104-261200-
NEW JERSEY

CITY           SKY/WX    TMP DP  RH WIND       PRES   REMARKS
NEWARK/LIBERTY PTSUNNY   67  60  78 SW5       30.00S
TETERBORO      PTSUNNY   71  59  65 CALM      29.99S
CALDWELL       PTSUNNY   66  59  78 CALM      30.01S
MORRISTOWN     MOSUNNY   63  61  94 CALM      30.01S
SOMERVILLE     NOT AVBL
LINDEN         FAIR      69  61  75 CALM      30.02S
SUSSEX         PTSUNNY   60  57  89 CALM      30.01S
ANDOVER          N/A     60  59  96 S3        30.01F
TRENTON        PTSUNNY   65  60  84 S3        30.01S
MILLVILLE      PTSUNNY   63  61  93 CALM      30.02S
ATLANTIC CITY  CLOUDY    65  61  87 CALM      30.02S
WRIGHTSTOWN    CLOUDY    64  63  95 NW1       30.00S
TOMS RIVER     CLOUDY    63  61  94 CALM      30.03R
BELMAR         CLOUDY    64  61  88 SW5       30.02S
$$

PAZ047>061-062-071-261200-
EASTERN PENNSYLVANIA

CITY           SKY/WX    TMP DP  RH WIND       PRES   REMARKS
PHILADELPHIA   CLOUDY    69  60  73 S3        30.01S
ALLENTOWN      PTSUNNY   65  57  75 CALM      30.01S
SCRANTON       PTSUNNY   60  52  74 CALM      30.01S
$$

CTZ002-004>006-009-010-012-RIZ004-006-007-MAZ004-011-015-261200-
SOUTHERN NEW ENGLAND
 IN CT

CITY           SKY/WX    TMP DP  RH WIND       PRES   REMARKS
BRADLEY INTL   PTSUNNY   65  60  84 S6        29.98S
HARTFORD       MOSUNNY   66  63  90 S5        29.99S
DANBURY        MOSUNNY   63  59  87 CALM      30.02S
WTRBRY/OXFORD  NOT AVBL
BRIDGEPORT     MOSUNNY   70  65  84 SW3       30.00S
MERIDEN        MOSUNNY   62  59  90 CALM      30.00S
NEW HAVEN      PTSUNNY   72  65  78 VRB3      30.00S
CHESTER        FAIR      66  64  94 SW3       30.02R
GROTON         MOSUNNY   69  67  93 SW6       29.99S
WILLIMANTIC    CLOUDY    60  57  89 CALM      30.01S

 IN RI

CITY           SKY/WX    TMP DP  RH WIND       PRES   REMARKS
PROVIDENCE     PTSUNNY   65  62  90 W5        30.00S
BLOCK ISLAND   MOSUNNY   68  64  88 SW8       30.01S
WESTERLY       MOSUNNY   63  60  90 CALM      30.01S

 IN MA

CITY           SKY/WX    TMP DP  RH WIND       PRES   REMARKS
BOSTON         PTSUNNY   66  58  75 SW7       29.98S
WORCESTER      PTSUNNY   61  58  90 SW7       30.00S
WESTFIELD      MOSUNNY   61  58  90 CALM      29.98S
PROVINCETOWN   MOSUNNY   66  63  88 SW9       30.00S
NANTUCKET      SUNNY     67  65  93 SW5       30.02R
$$

ANZ330-335-338-340-345-350-353-355-261200-
COASTAL MARINE OBSERVATIONS


STATION/POSITION TIME  SKY/WX   TEMP    WIND        PRES    VSBY  WAVE
                                AIR SEA DIR/SP/G                  HT/PER
                 (UTC)          (F)     (DEG/KT/KT) (MB)    (MI)  (FT/S)
NY HARB ENTRANCE NOT AVBL
4S FIRE IS       NOT AVBL
23SW MTP         1100            71 71              1015.9          3/ 7
HUDSON CANYON    1100            72 74  260/ 10/ 12 1016.8          2/ 8
EXECUTION ROCKS  1100            72 71  270/ 10/ 12   N/A
WESTERN LI SOUND 1100            71     240/  6/  8   N/A           0
CENTRAL LI SOUND 1100            71 71  230/ 12/ 14   N/A           1/ 3
EASTERN LI SOUND 1000            69 67  230/  6/  8   N/A
ROBBINS REEF     1100            69     260/  8/  8   N/A
$$


>>>>>>>>>>>>>>>>>>>>>>>>>>>> KEY <<<<<<<<<<<<<<<<<<<<<<<<<<<
>                                                          <
>     SKY/WX - SKY CONDITION/PRESENT WEATHER               <
>     TMP    - TEMPERATURE IN FAHRENHEIT                   <
>     DP     - DEWPOINT IN FAHRENHEIT                      <
>     RH     - RELATIVE HUMIDITY IN PERCENT                <
>     WIND   - DIRECTION AND SPEED IN MPH                  <
>     PRES   - MEAN SEA LEVEL PRESSURE IN INCHES OF HG     <
>     WCI    - WIND CHILL INDEX                            <
>     VSB    - VISIBILITY IN MILES                         <
>     HX     - HEAT INDEX                                  <
>     TC     - TEMPERATURE IN CELSIUS                      <
>     VRB    - VARIABLE WIND DIRECTION                     <
>                                                          <
>>>>>>>>>>>>>>>>>>>>>>>>>>>> KEY <<<<<<<<<<<<<<<<<<<<<<<<<<<





USA.gov is the U.S. government's official web portal to all federal, state and local government web resources and services.